FW9659 Weather Reports


Display with metric or nautical units.
time (UTC)temp
F
wind
direction
speed
MPH
gust
MPH
rain 1hr
in
rain 24hr
in
rain mn
in
humidity
%
barometer
mb
20210920234628 71 0 0.0 2.0 0.17 0.81 0.81 95 1015.5
20210920233042 73 0 1.0 5.0 0.15 0.79 0.79 93 1016.1
20210920231616 75 191 0.0 1.0 0.00 0.64 0.64 95 1015.7
20210920230131 75 0 0.0 5.0 0.00 0.64 0.64 94 1015.4
20210920224547 76 311 1.0 3.0 0.00 0.64 0.64 94 1015.4
20210920223122 76 329 1.0 2.0 0.00 0.64 0.64 95 1015.5
20210920221547 77 0 0.0 0.0 0.00 0.64 0.64 94 1015.2
20210920220105 76 300 1.0 2.0 0.00 0.64 0.64 93 1015.2
20210920214624 77 283 0.0 2.0 0.00 0.64 0.64 92 1015.1
20210920213145 79 0 0.0 1.0 0.00 0.64 0.64 89 1014.7
20210920211630 80 0 0.0 1.0 0.00 0.64 0.64 89 1015.0
20210920210107 80 19 0.0 2.0 0.00 0.64 0.64 88 1014.8
20210920204538 82 0 1.0 3.0 0.00 0.64 0.64 87 1015.1
20210920203056 80 0 0.0 1.0 0.03 0.64 0.64 90 1015.0
20210920201558 80 58 0.0 1.0 0.11 0.64 0.64 89 1015.4
20210920200058 81 95 0.0 1.0 0.12 0.64 0.64 88 1015.2
20210920194642 80 135 0.0 1.0 0.27 0.63 0.63 92 1015.6
20210920193107 79 0 0.0 2.0 0.25 0.61 0.61 92 1015.6
20210920191610 79 247 0.0 1.0 0.17 0.52 0.52 93 1015.8
20210920190151 78 274 1.0 8.0 0.16 0.52 0.52 86 1015.8
20210920184623 81 142 0.0 2.0 0.00 0.37 0.36 85 1016.1
20210920183204 80 0 0.0 1.0 0.00 0.37 0.36 85 1016.2
20210920181610 81 145 0.0 3.0 0.00 0.37 0.36 83 1016.5
20210920180121 81 117 1.0 3.0 0.00 0.37 0.36 86 1016.6
20210920174558 79 238 0.0 2.0 0.00 0.47 0.36 88 1016.6
20210920173114 81 151 2.0 5.0 0.00 0.47 0.36 86 1016.8
20210920171555 79 229 2.0 5.0 0.00 0.47 0.36 87 1017.0
20210920170107 77 128 2.0 4.0 0.00 0.47 0.36 90 1017.1
20210920164607 75 0 0.0 4.0 0.00 0.65 0.36 94 1017.0
20210920163117 75 120 2.0 7.0 0.00 0.65 0.36 93 1017.4
20210920161633 74 99 0.0 2.0 0.00 0.65 0.36 96 1017.3
20210920160217 74 0 0.0 1.0 0.01 0.65 0.36 95 1017.5
20210920154541 74 105 0.0 2.0 0.01 0.81 0.36 95 1017.3
20210920153113 74 143 0.0 2.0 0.01 0.81 0.36 95 1017.6
20210920151606 74 121 1.0 4.0 0.01 0.81 0.36 95 1017.4
20210920150053 74 124 0.0 4.0 0.00 0.80 0.35 95 1017.5
20210920144614 73 121 0.0 2.0 0.00 0.80 0.35 95 1017.5
20210920143047 73 188 1.0 4.0 0.00 0.80 0.35 96 1017.1
20210920141624 73 79 1.0 4.0 0.00 0.80 0.35 96 1017.2
20210920140044 72 115 1.0 3.0 0.00 0.80 0.35 96 1016.7
20210920134616 72 125 0.0 3.0 0.00 0.80 0.35 97 1017.0
20210920133053 71 147 1.0 6.0 0.00 0.80 0.35 97 1016.5
20210920131608 71 124 0.0 3.0 0.00 0.80 0.35 98 1016.8
20210920130107 71 97 1.0 3.0 0.00 0.80 0.35 98 1016.4
20210920124703 71 116 1.0 3.0 0.00 0.93 0.35 98 1016.7
20210920123120 71 122 1.0 5.0 0.00 0.93 0.35 98 1016.7
20210920121600 70 103 1.0 4.0 0.00 0.93 0.35 98 1016.5
20210920120124 70 148 0.0 4.0 0.00 0.93 0.35 98 1016.5
20210920114624 70 143 1.0 3.0 0.00 1.71 0.35 98 1016.1
20210920113135 70 141 1.0 4.0 0.00 1.71 0.35 98 1016.3
20210920111558 70 144 0.0 4.0 0.00 1.71 0.35 97 1016.0
20210920110059 70 169 0.0 4.0 0.00 1.71 0.35 97 1016.2
20210920104615 70 117 1.0 3.0 0.00 1.87 0.35 97 1016.1
20210920103140 70 113 1.0 5.0 0.00 1.87 0.35 97 1016.0
20210920101606 70 203 1.0 5.0 0.00 1.87 0.35 98 1016.0
20210920100049 70 144 0.0 2.0 0.00 1.87 0.35 97 1015.7
20210920094619 70 126 1.0 5.0 0.00 1.88 0.35 97 1016.0
20210920093102 70 141 1.0 3.0 0.04 1.88 0.35 97 1015.7
20210920091553 70 167 1.0 2.0 0.17 1.88 0.35 97 1016.0
20210920090051 70 138 1.0 3.0 0.33 1.88 0.35 97 1016.0
20210920084623 70 162 1.0 2.0 0.33 1.88 0.35 97 1016.0
20210920083145 70 122 0.0 3.0 0.30 1.84 0.31 97 1016.1
20210920081558 70 97 1.0 2.0 0.16 1.69 0.16 97 1016.0
20210920080121 70 146 0.0 4.0 0.02 1.55 0.02 96 1016.3
20210920074538 70 96 1.0 3.0 0.02 1.56 0.02 96 1016.1
20210920073105 70 174 2.0 3.0 0.01 1.55 0.01 95 1016.6
20210920071551 71 95 2.0 5.0 0.00 1.54 0.00 95 1016.5
20210920070106 71 126 1.0 6.0 0.00 1.54 0.00 95 1016.7
20210920064541 70 131 0.0 4.0 0.00 1.54 0.00 95 1016.7
20210920063058 70 117 1.0 2.0 0.00 1.54 0.00 95 1016.8
20210920061617 70 137 0.0 1.0 0.00 1.54 0.00 95 1017.1
20210920060115 71 155 0.0 1.0 0.00 1.54 0.00 95 1017.0
20210920054608 71 137 0.0 3.0 0.00 1.54 0.00 95 1017.3
20210920053042 71 0 2.0 9.0 0.00 1.54 0.00 94 1017.0
20210920051554 71 118 3.0 7.0 0.00 1.54 0.00 95 1017.2
20210920050050 71 143 2.0 7.0 0.00 1.54 0.00 95 1017.2
20210920044611 71 147 1.0 2.0 0.00 1.54 1.54 96 1017.1
20210920043059 71 181 2.0 7.0 0.00 1.54 1.54 95 1017.3
20210920041604 71 124 3.0 6.0 0.00 1.54 1.54 96 1017.1
20210920040047 71 143 3.0 8.0 0.00 1.54 1.54 96 1017.4
20210920034549 71 163 1.0 7.0 0.00 1.54 1.54 96 1017.0
20210920033036 71 139 1.0 4.0 0.00 1.54 1.54 96 1017.1
20210920031552 71 202 1.0 4.0 0.00 1.54 1.54 96 1017.0
20210920030106 71 160 1.0 4.0 0.00 1.54 1.54 96 1017.2
20210920024608 71 138 1.0 4.0 0.00 1.54 1.54 96 1017.2
20210920023040 71 162 2.0 4.0 0.00 1.54 1.54 96 1017.0
20210920021533 71 134 1.0 5.0 0.00 1.54 1.54 96 1017.2
20210920020103 71 159 1.0 5.0 0.00 1.54 1.54 96 1016.7
20210920014540 71 167 0.0 4.0 0.00 1.54 1.54 96 1017.0
20210920013136 71 136 1.0 4.0 0.00 1.54 1.54 96 1016.4
20210920011612 70 129 1.0 2.0 0.00 1.54 1.54 96 1016.4
20210920010109 70 152 0.0 5.0 0.00 1.54 1.54 96 1016.2
20210920004644 71 141 0.0 3.0 0.00 1.54 1.54 96 1016.0
20210920003122 71 0 0.0 3.0 0.00 1.54 1.54 96 1016.2
20210920001552 71 127 0.0 3.0 0.00 1.54 1.54 96 1015.7
20210920000045 71 0 0.0 0.0 0.00 1.54 1.54 96 1016.0